Worcester, MA

12:13 AM EDT on July 24, 2017 (GMT -0400)
Worcester Regional

Weather History for KORH - November, 2011

Change the Weather History Date:

Thursday, November 17, 2011

  Actual Average Record
Temperature  
Mean Temperature 43 °F 40 °F  
Max Temperature 51 °F 47 °F 74 °F (1928)
Min Temperature 34 °F 33 °F 8 °F (1924)
Degree Days  
Heating Degree Days 22 25  
Month to date heating degree days 286 382  
Since 1 July heating degree days 764 1043  
Cooling Degree Days 0 0  
Month to date cooling degree days 0 0  
Year to date cooling degree days 638 471  
Moisture  
Dew Point 33 °F    
Average Humidity 74    
Maximum Humidity 93    
Minimum Humidity 55    
Precipitation  
Precipitation 0.03 in 0.15 in 1.50 in (1930)
Month to date precipitation 1.32 2.40  
Year to date precipitation 59.04 42.37  
Snow  
Snow T in 0.00 in 1.90 in (1992)
Month to date snowfall T 0.8  
Since 1 July snowfall 16.0 1.0  
Since 1 September snowfall 16.0 1.0  
Snow Depth 0.00 in    
Sea Level Pressure  
Sea Level Pressure 29.79 in    
Wind  
Wind Speed 10 mph (WNW)    
Max Wind Speed 23 mph    
Max Gust Speed 30 mph    
Visibility 10 miles    
Events Rain , Snow    
T = Trace of Precipitation, MM = Missing Value Source: NWS Daily Summary

Daily Weather History Graph

Daily Weather History Graph

Search for Another Location

Airport or City:

Trip Planner

Search our weather history database for the weather conditions in past years. The results will help you decide how hot, cold, wet, or windy it might be!

Date:

Astronomy

Nov. 17, 2011 Rise Set
Actual Time 6:40 AM EST 4:24 PM EST
Civil Twilight 6:09 AM EST 4:54 PM EST
Nautical Twilight 5:35 AM EST 5:28 PM EST
Astronomical Twilight 5:02 AM EST 6:01 PM EST
Moon 10:43 PM EST (11/17) 11:45 AM EST (11/17)
Length of Visible Light 10h 44m
Length of Day
9h 44m
Waning Gibbous, 60% of the Moon is Illuminated
Nov 17
Waning Gibbous
Nov 18
Last Quarter
Nov 25
New
Dec 2
First Quarter
Dec 10
Full

Hourly Weather History & Observations

Time (EST) Temp. Windchill Dew Point Humidity Pressure Visibility Wind Dir Wind Speed Gust Speed Precip Events Conditions
12:54 AM 51.1 °F - 48.9 °F 92% 29.72 in 10.0 mi WNW 11.5 mph - 0.00 in Rain Light Rain
1:54 AM 50.0 °F - 48.9 °F 96% 29.73 in 10.0 mi WNW 8.1 mph - 0.02 in Rain Light Rain
2:54 AM 50.0 °F - 48.0 °F 93% 29.73 in 10.0 mi WNW 9.2 mph - 0.00 in   Overcast
3:54 AM 48.9 °F - 45.0 °F 86% 29.74 in 10.0 mi WNW 13.8 mph - N/A   Overcast
4:54 AM 46.4 °F 41.5 °F 42.8 °F 87% 29.76 in 10.0 mi NW 10.4 mph - N/A   Overcast
5:54 AM 45.0 °F 41.8 °F 41.0 °F 86% 29.78 in 10.0 mi WNW 5.8 mph - N/A   Overcast
6:54 AM 44.6 °F 41.4 °F 39.2 °F 81% 29.79 in 10.0 mi Variable 5.8 mph - N/A   Overcast
7:54 AM 44.1 °F 40.8 °F 39.9 °F 85% 29.81 in 10.0 mi NNW 5.8 mph - N/A   Overcast
8:54 AM 43.0 °F 36.0 °F 32.0 °F 65% 29.79 in 10.0 mi NW 13.8 mph - N/A   Overcast
9:54 AM 42.8 °F 37.0 °F 30.2 °F 61% 29.80 in 10.0 mi NW 10.4 mph - N/A   Overcast
10:54 AM 41.0 °F 35.2 °F 28.9 °F 62% 29.81 in 10.0 mi NNW 9.2 mph - N/A   Overcast
11:54 AM 41.0 °F 34.7 °F 26.1 °F 55% 29.76 in 10.0 mi NNW 10.4 mph - N/A   Overcast
12:54 PM 41.0 °F 35.2 °F 26.1 °F 55% 29.77 in 10.0 mi NNW 9.2 mph - N/A   Overcast
1:54 PM 41.0 °F 34.3 °F 26.1 °F 55% 29.76 in 10.0 mi NNW 11.5 mph - N/A   Overcast
2:54 PM 39.2 °F 32.5 °F 26.6 °F 61% 29.76 in 10.0 mi WNW 10.4 mph - N/A   Overcast
3:54 PM 39.9 °F 33.9 °F 27.0 °F 60% 29.77 in 10.0 mi NW 9.2 mph - N/A   Overcast
4:14 PM 37.4 °F 28.9 °F 30.2 °F 75% 29.74 in 10.0 mi WNW 13.8 mph 21.9 mph 0.00 in Rain Light Rain
4:25 PM 37.4 °F 28.9 °F 30.2 °F 75% 29.75 in 10.0 mi NW 13.8 mph 20.7 mph 0.00 in Rain Light Rain
4:54 PM 36.0 °F 29.0 °F 32.0 °F 86% 29.77 in 9.0 mi NW 9.2 mph 23.0 mph 0.00 in Snow Light Snow
5:54 PM 36.0 °F 29.0 °F 33.1 °F 89% 29.79 in 10.0 mi West 9.2 mph - 0.00 in   Overcast
6:51 PM 35.6 °F 29.2 °F 33.8 °F 93% 29.79 in 8.0 mi WNW 8.1 mph - 0.00 in Snow Light Snow
6:54 PM 35.1 °F 28.6 °F 33.1 °F 92% 29.82 in 8.0 mi WNW 8.1 mph - 0.00 in Snow Light Snow
7:05 PM 35.6 °F 29.9 °F 33.8 °F 93% 29.79 in 9.0 mi West 6.9 mph - 0.01 in Snow Light Snow
7:54 PM 35.1 °F 27.9 °F 33.1 °F 92% 29.82 in 10.0 mi West 9.2 mph - 0.01 in   Overcast
8:54 PM 36.0 °F 27.1 °F 30.0 °F 79% 29.85 in 9.0 mi WNW 13.8 mph 24.2 mph 0.00 in   Overcast
9:54 PM 35.1 °F 25.9 °F 26.1 °F 70% 29.87 in 10.0 mi WNW 13.8 mph 21.9 mph N/A   Partly Cloudy
10:54 PM 34.0 °F 23.8 °F 21.9 °F 61% 29.89 in 10.0 mi West 16.1 mph 21.9 mph N/A   Clear
11:54 PM 34.0 °F 24.2 °F 21.0 °F 59% 29.91 in 10.0 mi West 15.0 mph 24.2 mph N/A   Clear